Madison, MN

5:34 PM CDT on August 28, 2016 (GMT -0500)
Madison-Lac Qui Parle County

Weather History for KDXX - January, 2014

Change the Weather History Date:

Saturday, January 18, 2014

  Actual Average (KAQP) Record (KAQP)
Temperature  
Mean Temperature 27 °F -  
Max Temperature 37 °F 17 °F 39 °F (2013)
Min Temperature 17 °F 1 °F -14 °F (1997)
Degree Days  
Heating Degree Days 38    
Moisture  
Dew Point 21 °F    
Average Humidity 82    
Maximum Humidity 93    
Minimum Humidity 64    
Precipitation  
Precipitation 0.00 in - - ()
Sea Level Pressure  
Sea Level Pressure 29.75 in    
Wind  
Wind Speed 16 mph (WNW)    
Max Wind Speed 34 mph    
Max Gust Speed 41 mph    
Visibility 8 miles    
Events Snow    
Averages and records for this station are not official NWS values.
T = Trace of Precipitation, MM = Missing Value Source: NWS Daily Summary

Daily Weather History Graph

Daily Weather History Graph

Search for Another Location

Airport or City:

Trip Planner

Search our weather history database for the weather conditions in past years. The results will help you decide how hot, cold, wet, or windy it might be!

Date:

Astronomy

Jan. 18, 2014 Rise Set
Actual Time 7:57 AM CST 5:13 PM CST
Civil Twilight 7:24 AM CST 5:45 PM CST
Nautical Twilight 6:48 AM CST 6:22 PM CST
Astronomical Twilight 6:13 AM CST 6:57 PM CST
Moon 8:05 PM CST (1/18) 8:49 AM CST (1/18)
Length of Visible Light 10h 20m
Length of Day
9h 15m
Waning Gibbous, 94% of the Moon is Illuminated
Jan 18
Waning Gibbous
Jan 23
Last Quarter
Jan 30
New
Feb 6
First Quarter
Feb 14
Full

Hourly Weather History & Observations

Time (CST) Temp. Windchill Dew Point Humidity Pressure Visibility Wind Dir Wind Speed Gust Speed Precip Events Conditions
12:13 AM 28.4 °F 17.5 °F 21.2 °F 74% 29.53 in 10.0 mi South 13.8 mph - N/A   Overcast
12:34 AM 28.4 °F 18.5 °F 21.2 °F 74% 29.51 in 10.0 mi SSW 11.5 mph - N/A   Overcast
12:54 AM 30.2 °F 20.2 °F 19.4 °F 64% 29.50 in 10.0 mi SW 12.7 mph - N/A   Overcast
1:13 AM 30.2 °F 21.3 °F 21.2 °F 69% 29.48 in 10.0 mi SW 10.4 mph - N/A   Overcast
1:34 AM 32.0 °F 25.6 °F 23.0 °F 69% 29.47 in 10.0 mi WSW 6.9 mph - N/A   Overcast
1:54 AM 33.8 °F 23.5 °F 26.6 °F 75% 29.46 in 3.0 mi West 16.1 mph - N/A Snow Light Snow
2:13 AM 35.6 °F 24.2 °F 33.8 °F 93% 29.44 in 2.0 mi West 21.9 mph 25.3 mph N/A Snow Light Snow
2:33 AM 37.4 °F 27.2 °F 33.8 °F 87% 29.44 in - WNW 19.6 mph - N/A   Mostly Cloudy
2:54 AM 37.4 °F 26.9 °F 33.8 °F 87% 29.44 in 2.5 mi WNW 20.7 mph 26.5 mph N/A Snow Light Snow
3:13 AM 37.4 °F 27.5 °F 33.8 °F 87% 29.44 in 1.8 mi WNW 18.4 mph 25.3 mph N/A Snow Light Snow
3:34 AM 37.4 °F 28.2 °F 33.8 °F 87% 29.43 in 2.0 mi WNW 16.1 mph 24.2 mph N/A Snow Light Snow
3:54 AM 37.4 °F 27.8 °F 33.8 °F 87% 29.42 in 3.0 mi WNW 17.3 mph - N/A Snow Light Snow
4:13 AM 37.4 °F 27.5 °F 35.6 °F 93% 29.42 in 5.0 mi WNW 18.4 mph - N/A Snow Light Snow
4:34 AM 37.4 °F 27.2 °F 35.6 °F 93% 29.42 in 10.0 mi WNW 19.6 mph 26.5 mph N/A Snow Light Snow
4:54 AM 37.4 °F 27.2 °F 33.8 °F 87% 29.41 in 10.0 mi WNW 19.6 mph 26.5 mph N/A   Mostly Cloudy
5:13 AM 37.4 °F 27.2 °F 33.8 °F 87% 29.41 in 10.0 mi WNW 19.6 mph 25.3 mph N/A   Mostly Cloudy
5:34 AM 37.4 °F 27.2 °F 33.8 °F 87% 29.41 in 10.0 mi NW 19.6 mph 31.1 mph N/A   Mostly Cloudy
5:54 AM 35.6 °F 24.5 °F 33.8 °F 93% 29.44 in 3.0 mi NNW 20.7 mph 27.6 mph N/A Snow Light Snow
6:13 AM 35.6 °F 23.7 °F 30.2 °F 81% 29.45 in 10.0 mi NNW 24.2 mph 29.9 mph N/A Snow Light Snow
6:34 AM 33.8 °F 20.3 °F 30.2 °F 87% 29.46 in 5.0 mi NNW 28.8 mph 35.7 mph N/A   Overcast
6:53 AM 33.8 °F 19.4 °F 28.4 °F 81% 29.49 in 2.5 mi NNW 33.4 mph 39.1 mph N/A   Overcast
7:14 AM 30.2 °F 14.3 °F 26.6 °F 86% 29.51 in 1.5 mi NNW 34.5 mph 41.4 mph N/A Snow Light Snow
7:34 AM 28.4 °F 12.5 °F 26.6 °F 93% 29.54 in 2.5 mi NNW 31.1 mph 35.7 mph N/A   Overcast
7:53 AM 24.8 °F 9.6 °F 21.2 °F 86% 29.59 in 3.0 mi North 23.0 mph 31.1 mph N/A   Mostly Cloudy
8:14 AM 21.2 °F 5.2 °F 17.6 °F 86% 29.64 in 5.0 mi North 21.9 mph 28.8 mph N/A   Overcast
8:34 AM 19.4 °F 2.5 °F 15.8 °F 86% 29.68 in 4.0 mi North 23.0 mph - N/A   Overcast
8:53 AM 19.4 °F 3.2 °F 15.8 °F 86% 29.72 in 5.0 mi North 20.7 mph 26.5 mph N/A   Haze
9:14 AM 19.4 °F 2.5 °F 15.8 °F 86% 29.75 in 7.0 mi North 23.0 mph - N/A   Overcast
9:33 AM 19.4 °F 3.6 °F 14.0 °F 80% 29.79 in 10.0 mi North 19.6 mph - N/A   Overcast
9:54 AM 19.4 °F 3.6 °F 14.0 °F 80% 29.82 in 7.0 mi North 19.6 mph 26.5 mph N/A   Overcast
10:14 AM 19.4 °F 1.4 °F 14.0 °F 80% 29.85 in 5.0 mi North 26.5 mph 29.9 mph N/A   Haze
10:33 AM 19.4 °F 2.5 °F 14.0 °F 80% 29.88 in 4.0 mi North 23.0 mph 31.1 mph N/A   Haze
10:54 AM 17.6 °F -0.3 °F 12.2 °F 79% 29.90 in 10.0 mi North 24.2 mph - N/A   Mostly Cloudy
11:13 AM 17.6 °F 0.5 °F 12.2 °F 79% 29.92 in 10.0 mi NNW 21.9 mph - N/A   Scattered Clouds
11:34 AM 17.6 °F 0.5 °F 12.2 °F 79% 29.93 in 10.0 mi North 21.9 mph 26.5 mph N/A   Clear
11:54 AM 19.4 °F 3.6 °F 12.2 °F 74% 29.93 in 10.0 mi North 19.6 mph - N/A   Clear
12:13 PM 19.4 °F 5.5 °F 12.2 °F 74% 29.93 in 10.0 mi North 15.0 mph - N/A   Clear
12:34 PM 19.4 °F 4.1 °F 12.2 °F 74% 29.94 in 10.0 mi NNW 18.4 mph - N/A   Clear
12:54 PM 19.4 °F 6.0 °F 14.0 °F 80% 29.94 in 10.0 mi NNW 13.8 mph - N/A   Clear
1:13 PM 19.4 °F 5.5 °F 14.0 °F 80% 29.94 in 10.0 mi NNW 15.0 mph - N/A   Clear
1:34 PM 19.4 °F 6.0 °F 14.0 °F 80% 29.95 in 10.0 mi NNW 13.8 mph 20.7 mph N/A   Clear
1:54 PM 21.2 °F 7.3 °F 15.8 °F 80% 29.97 in 10.0 mi NW 16.1 mph 20.7 mph N/A   Clear
2:13 PM 21.2 °F 7.3 °F 15.8 °F 80% 29.98 in 10.0 mi NNW 16.1 mph - N/A   Clear
2:34 PM 21.2 °F 7.3 °F 15.8 °F 80% 29.99 in 10.0 mi NW 16.1 mph 21.9 mph N/A   Clear
2:54 PM 21.2 °F 7.8 °F 15.8 °F 80% 30.00 in 10.0 mi NW 15.0 mph 21.9 mph N/A   Clear
3:13 PM 21.2 °F 6.4 °F 15.8 °F 80% 29.99 in 10.0 mi NW 18.4 mph 21.9 mph N/A   Clear
3:34 PM 21.2 °F 10.1 °F 15.8 °F 80% 30.00 in 10.0 mi NW 10.4 mph - N/A   Clear
3:54 PM 21.2 °F 9.5 °F 15.8 °F 80% 30.01 in 10.0 mi NNW 11.5 mph - N/A   Clear
4:14 PM 21.2 °F 12.6 °F 15.8 °F 80% 29.99 in 10.0 mi NNW 6.9 mph - N/A   Clear
4:34 PM 21.2 °F 12.6 °F 15.8 °F 80% 30.00 in 10.0 mi WNW 6.9 mph - N/A   Clear
4:53 PM 21.2 °F 14.9 °F 15.8 °F 80% 30.00 in 10.0 mi NW 4.6 mph - N/A   Clear
5:14 PM 19.4 °F 14.3 °F 15.8 °F 86% 30.00 in 10.0 mi WNW 3.5 mph - N/A   Clear
5:34 PM 17.6 °F 5.7 °F 14.0 °F 86% 30.00 in 10.0 mi West 10.4 mph - N/A   Clear
5:53 PM 19.4 °F 8.6 °F 15.8 °F 86% 29.99 in 10.0 mi West 9.2 mph - N/A   Clear
6:14 PM 19.4 °F 8.6 °F 15.8 °F 86% 29.99 in 10.0 mi West 9.2 mph - N/A   Clear
6:34 PM 21.2 °F 11.7 °F 15.8 °F 80% 29.98 in 10.0 mi West 8.1 mph - N/A   Clear
6:53 PM 21.2 °F 11.7 °F 17.6 °F 86% 29.96 in 10.0 mi West 8.1 mph - N/A   Clear
7:14 PM 21.2 °F 13.6 °F 17.6 °F 86% 29.94 in 10.0 mi WSW 5.8 mph - N/A   Clear
7:33 PM 21.2 °F 13.6 °F 17.6 °F 86% 29.93 in 10.0 mi WSW 5.8 mph - N/A   Clear
7:54 PM 21.2 °F 14.9 °F 17.6 °F 86% 29.90 in 10.0 mi SW 4.6 mph - N/A   Scattered Clouds
8:13 PM 23.0 °F 18.4 °F 19.4 °F 86% 29.89 in 10.0 mi SW 3.5 mph - N/A   Mostly Cloudy
8:33 PM 23.0 °F 17.0 °F 19.4 °F 86% 29.88 in 10.0 mi SW 4.6 mph - N/A   Scattered Clouds
8:54 PM 23.0 °F 14.7 °F 19.4 °F 86% 29.86 in 10.0 mi SSW 6.9 mph - N/A   Clear
9:13 PM 24.8 °F 15.3 °F 21.2 °F 86% 29.83 in 10.0 mi SW 9.2 mph - N/A   Clear
9:34 PM 26.6 °F 16.2 °F 21.2 °F 80% 29.81 in 10.0 mi SW 11.5 mph - N/A   Clear
9:53 PM 26.6 °F 15.2 °F 23.0 °F 86% 29.78 in 10.0 mi SW 13.8 mph - N/A   Clear
10:14 PM 28.4 °F 18.5 °F 24.8 °F 86% 29.75 in 10.0 mi SW 11.5 mph - N/A   Clear
10:34 PM 30.2 °F 20.8 °F 26.6 °F 86% 29.75 in 10.0 mi West 11.5 mph - N/A   Clear
10:53 PM 32.0 °F 21.2 °F 26.6 °F 80% 29.75 in 10.0 mi West 16.1 mph 20.7 mph N/A   Clear
11:14 PM 32.0 °F 21.6 °F 26.6 °F 80% 29.73 in 10.0 mi West 15.0 mph - N/A   Clear
11:34 PM 33.8 °F 24.3 °F 26.6 °F 75% 29.72 in 10.0 mi West 13.8 mph 24.2 mph N/A   Clear
11:53 PM 33.8 °F 22.5 °F 26.6 °F 75% 29.70 in 10.0 mi WSW 19.6 mph 28.8 mph N/A   Clear